This demonstration page uses our WeatherBlox Daily Observations layout. Learn more.

Left ArrowRight Arrow

41.86663, -103.66717

Hourly Observations for January 24, 2017

Temp ( °F °C ) Dew Point ( °F °C ) Humidity (%) Winds ( mph kmh ) Pressure ( in mb ) Visibility ( mi km ) Precip ( " mm )
12:43 am 00:43 Mostly Cloudy with Snow 27 -2.8 24 -4.4 89 89 NNE 9 15 29.74 1007 1 1 0.15 3.81
12:53 am 00:53 Mostly Cloudy with Snow 27 -2.8 24 -4.4 89 89 NE 10 17 29.62 1003 1 1 0.16 4.06
1:01 am 01:01 Cloudy with Light Snow 26 -3.3 23 -5 88 88 NNE 12 19 29.74 1007 1 2 0.01 0.25
1:20 am 01:20 Cloudy with Light Snow 27 -3 21 -6 80 80 NE 13 20 29.74 1007 2 2 0.00 0.00
1:29 am 01:29 Cloudy with Light Snow 26 -3.3 22 -5.6 84 84 NE 14 22 29.74 1007 3 5 0.02 0.51
1:53 am 01:53 Cloudy 26 -3.3 21 -6.1 81 81 NNE 14 22 29.62 1003 8 13 0.02 0.51
2:03 am 02:03 Cloudy with Light Snow 26 -3.3 21 -6.1 81 81 NNE 17 28 29.74 1007 2 3 0.00 0.03
2:33 am 02:33 Cloudy with Light Snow 25 -3.9 20 -6.7 81 81 NNE 17 28 29.74 1007 3 4 0.00 0.03
2:37 am 02:37 Windy with Snow Likely 25 -3.9 20 -6.7 81 81 NNE 20 31 29.74 1007 3 5 0.00 0.03
2:48 am 02:48 Windy with Snow Likely 25 -4 19 -7 80 80 NNE 20 31 29.77 1008 4 6 0.00 0.00
2:53 am 02:53 Cloudy with Light Snow 25 -3.9 20 -6.7 81 81 NNE 17 28 29.60 1002 4 6 0.01 0.25
3:14 am 03:14 Cloudy with Light Snow 25 -4 19 -7 80 80 NNE 13 20 29.77 1008 2 3 0.00 0.00
3:26 am 03:26 Cloudy with Light Snow 25 -4 19 -7 80 80 NNE 16 26 29.77 1008 3 5 0.00 0.00
3:53 am 03:53 Cloudy with Light Snow 24 -4.4 20 -6.7 84 84 W 5 7 29.64 1004 2 3 0.01 0.25
4:10 am 04:10 Cloudy with Light Snow 25 -4 19 -7 80 80 NNW 5 7 29.77 1008 1 1 0.00 0.00
4:24 am 04:24 Cloudy with Light Snow 25 -4 19 -7 80 80 N 9 15 29.77 1008 1 1 0.00 0.00
4:53 am 04:53 Mostly Cloudy with Light Snow 23 -5 20 -6.7 88 88 N 9 15 29.67 1005 1 1 0.08 2.03
5:20 am 05:20 Cloudy with Light Snow 23 -5 19 -7 86 86 NNW 8 13 29.83 1010 1 2 0.00 0.00
5:30 am 05:30 Cloudy with Light Snow 23 -5 19 -7 86 86 NNW 9 15 29.83 1010 2 3 0.00 0.00
5:51 am 05:51 Cloudy with Light Snow 21 -6 19 -7 93 93 N 12 19 29.83 1010 1 1 0.06 1.52
5:53 am 05:53 Cloudy with Light Snow 22 -5.6 19 -7.2 89 89 N 12 19 29.67 1005 1 1 0.06 1.52
6:12 am 06:12 Mostly Cloudy with Light Snow 21 -6 18 -8 86 86 NW 9 15 29.83 1010 1 1 0.00 0.00
6:45 am 06:45 Mostly Cloudy with Snow 22 -5.6 19 -7.2 89 89 N 15 24 29.83 1010 1 1 0.06 1.52
6:53 am 06:53 Mostly Cloudy with Snow 22 -5.6 19 -7.2 89 89 N 14 22 29.69 1005 1 1 0.06 1.52
7:09 am 07:09 Mostly Cloudy with Light Snow 21 -6 18 -8 86 86 N 12 19 29.83 1010 1 2 0.00 0.00
7:32 am 07:32 Cloudy with Light Snow 21 -6 18 -8 86 86 N 12 19 29.85 1011 2 2 0.00 0.00
7:48 am 07:48 Mostly Cloudy with Heavy Snow 21 -6 18 -8 86 86 N 15 24 29.85 1011 0 0 0.00 0.00
7:53 am 07:53 Mostly Cloudy with Heavy Snow 22 -5.6 18 -7.8 85 85 N 16 26 29.71 1006 0 0 0.05 1.27
8:09 am 08:09 Mostly Cloudy with Freezing Fog 22 -5.6 18 -7.8 85 85 N 16 26 29.85 1011 1 1 0.00 0.03
8:53 am 08:53 Mostly Cloudy with Haze 22 -5.6 17 -8.3 82 82 N 21 33 29.74 1007 0 0 0.01 0.25
9:11 am 09:11 Mostly Cloudy with Freezing Fog 22 -5.6 18 -7.8 85 85 N 21 33 29.88 1012 0 0 0.00 0.00
9:53 am 09:53 Mostly Cloudy with Freezing Fog 21 -6.1 17 -8.3 85 85 N 20 31 29.78 1009 0 0 0.00 0.00
9:55 am 09:55 Mostly Cloudy with Freezing Fog 21 -6.1 17 -8.3 85 85 N 15 24 29.91 1013 1 1 0.00 0.00
10:10 am 10:10 Cloudy with Haze 21 -6 16 -9 80 80 N 15 24 29.88 1012 1 2 0.00 0.00
10:29 am 10:29 Cloudy with Haze 21 -6.1 16 -8.9 81 81 N 20 31 29.91 1013 1 1 0.00 0.00
10:36 am 10:36 Cloudy with Haze 21 -6 16 -9 80 80 N 20 31 29.88 1012 1 1 0.00 0.00
10:53 am 10:53 Cloudy with Haze 21 -6.1 16 -8.9 81 81 N 18 30 29.79 1009 1 1 0.00 0.00
11:01 am 11:01 Cloudy with Haze 21 -6.1 16 -8.9 81 81 N 21 33 29.91 1013 1 2 0.00 0.00
11:14 am 11:14 Cloudy with Haze 22 -5.6 16 -8.9 78 78 N 15 24 29.88 1012 3 5 0.00 0.00
11:53 am 11:53 Cloudy 23 -5 16 -8.9 74 74 N 17 28 29.78 1009 7 11 0.00 0.00
12:53 pm 12:53 Cloudy with Light Snow 23 -5 16 -8.9 74 74 NNW 18 30 29.78 1008 3 5 0.00 0.03
1:53 pm 13:53 Cloudy 25 -3.9 16 -8.9 69 69 NNW 20 31 29.78 1008 10 16 0.00 0.03
2:53 pm 14:53 Cloudy 23 -5 14 -10 68 68 N 16 26 29.83 1010 10 16 0.00 0.00
3:53 pm 15:53 Cloudy 22 -5.6 14 -10 71 71 NNW 16 26 29.85 1011 10 16 0.00 0.00
4:53 pm 16:53 Cloudy 22 -5.6 14 -10 71 71 NNW 13 20 29.89 1012 10 16 0.00 0.00
5:38 pm 17:38 Cloudy with Light Snow 21 -6 14 -10 74 74 NNW 8 13 30.00 1016 5 8 0.00 0.00
5:53 pm 17:53 Cloudy with Light Snow 21 -6.1 15 -9.4 78 78 NW 8 13 29.93 1014 5 8 0.00 0.03
6:13 pm 18:13 Cloudy with Light Snow 21 -6.1 15 -9.4 78 78 NW 10 17 30.03 1017 3 4 0.00 0.03
6:37 pm 18:37 Cloudy with Light Snow 20 -6.7 15 -9.4 81 81 WNW 10 17 30.06 1018 3 5 0.00 0.03
6:53 pm 18:53 Cloudy with Light Snow 20 -6.7 15 -9.4 81 81 WNW 10 17 29.95 1014 3 4 0.00 0.03
7:00 pm 19:00 Cloudy with Light Snow 19 -7 16 -9 86 86 WNW 10 17 30.06 1018 3 5 0.00 0.00
7:20 pm 19:20 Cloudy with Light Snow 19 -7 16 -9 86 86 WNW 9 15 30.06 1018 3 4 0.00 0.00
7:42 pm 19:42 Cloudy with Light Snow 19 -7 16 -9 86 86 WNW 10 17 30.06 1018 3 5 0.00 0.00
7:53 pm 19:53 Cloudy with Light Snow 20 -6.7 15 -9.4 81 81 WNW 9 15 29.96 1015 4 6 0.01 0.25
8:43 pm 20:43 Cloudy with Light Snow 20 -6.7 15 -9.4 81 81 WNW 9 15 30.09 1019 3 4 0.00 0.03
8:53 pm 20:53 Cloudy with Light Snow 20 -6.7 16 -8.9 85 85 WNW 8 13 29.98 1015 1 2 0.00 0.03
9:25 pm 21:25 Cloudy with Light Snow 20 -6.7 15 -9.4 81 81 NW 15 24 30.09 1019 3 4 0.01 0.25
9:53 pm 21:53 Cloudy with Light Snow 20 -6.7 15 -9.4 81 81 NW 12 19 30.00 1016 3 4 0.01 0.25
10:00 pm 22:00 Cloudy with Light Snow 19 -7 16 -9 86 86 NW 10 17 30.12 1020 5 8 0.00 0.00
10:53 pm 22:53 Cloudy with Light Snow 19 -7.2 13 -10.6 77 77 NW 12 19 30.03 1017 8 13 0.00 0.03
11:53 pm 23:53 Cloudy with Light Snow 18 -7.8 13 -10.6 81 81 NW 12 19 30.02 1017 4 6 0.00 0.03

Powered by AerisWeather